nws-alerts: Checking more than four warning/county codes can delay the loading of your pages. You should use a cron job to get the data.
EllijayWeather Station Historical Data
Daily Summary for November 8, 2018 Units:  English    Metric   Both
Daily Weekly Monthly Yearly Custom
  High: Low: Average:
Temperature: 60.3 °F 52.5 °F 55.9 °F
Dew Point: 52.0 °F 32.9 °F 41.7 °F
Humidity: 75% 45% 60%
Wind Speed: 0.0mph 0.0mph 0mph
Wind Gust: 0.0mph - -
Wind- - North
Pressure: 30.16 in 30.11 in -
Precipitation: 0.02 in    
Historical Graphs
 
 
Tabular Data for November 8, 2018
Time Temperature Dew Point Pressure Wind Wind Speed Wind Gust Humidity Rainfall Rate (Hourly) solar
00:03 54.0 °F 34.2 °F 30.13 in Calm     47% 0.00 in meteobridge W/m2
00:09 54.0 °F 34.2 °F 30.13 in Calm     47% 0.00 in meteobridge W/m2
00:14 54.0 °F 34.2 °F 30.13 in Calm     47% 0.00 in meteobridge W/m2
00:19 54.1 °F 34.3 °F 30.13 in Calm     47% 0.00 in meteobridge W/m2
00:24 54.1 °F 34.3 °F 30.13 in Calm     47% 0.00 in meteobridge W/m2
00:29 54.0 °F 34.2 °F 30.13 in Calm     47% 0.00 in meteobridge W/m2
00:34 54.0 °F 35.2 °F 30.13 in Calm     49% 0.00 in meteobridge W/m2
00:38 54.0 °F 35.2 °F 30.13 in Calm     49% 0.00 in meteobridge W/m2
00:44 54.0 °F 34.2 °F 30.13 in Calm     47% 0.00 in meteobridge W/m2
00:49 54.0 °F 34.2 °F 30.13 in Calm     47% 0.00 in meteobridge W/m2
00:54 54.0 °F 34.2 °F 30.12 in Calm     47% 0.00 in meteobridge W/m2
00:58 54.0 °F 34.2 °F 30.12 in Calm     47% 0.00 in meteobridge W/m2
01:04 54.0 °F 34.2 °F 30.13 in Calm     47% 0.00 in meteobridge W/m2
01:08 54.0 °F 34.2 °F 30.13 in Calm     47% 0.00 in meteobridge W/m2
01:14 54.0 °F 34.2 °F 30.13 in Calm     47% 0.00 in meteobridge W/m2
01:18 54.0 °F 35.2 °F 30.13 in Calm     49% 0.00 in meteobridge W/m2
01:24 54.0 °F 34.2 °F 30.12 in Calm     47% 0.00 in meteobridge W/m2
01:29 53.8 °F 34.0 °F 30.12 in Calm     47% 0.00 in meteobridge W/m2
01:34 53.8 °F 34.0 °F 30.12 in Calm     47% 0.00 in meteobridge W/m2
01:39 53.4 °F 33.6 °F 30.12 in Calm     47% 0.00 in meteobridge W/m2
01:44 53.2 °F 33.4 °F 30.12 in Calm     47% 0.00 in meteobridge W/m2
01:46 53.2 °F 33.4 °F 30.12 in Calm     47% 0.00 in meteobridge W/m2
01:51 53.1 °F 33.4 °F 30.11 in Calm     47% 0.00 in meteobridge W/m2
01:59 53.1 °F 33.4 °F 30.12 in Calm     47% 0.00 in meteobridge W/m2
02:02 53.1 °F 33.4 °F 30.12 in Calm     47% 0.00 in meteobridge W/m2
02:09 53.1 °F 33.4 °F 30.12 in Calm     47% 0.00 in meteobridge W/m2
02:12 53.1 °F 33.4 °F 30.11 in Calm     47% 0.00 in meteobridge W/m2
02:19 53.1 °F 33.4 °F 30.11 in Calm     47% 0.00 in meteobridge W/m2
02:24 52.9 °F 33.3 °F 30.11 in Calm     47% 0.00 in meteobridge W/m2
02:28 52.9 °F 33.3 °F 30.11 in Calm     47% 0.00 in meteobridge W/m2
02:34 52.9 °F 33.3 °F 30.11 in Calm     47% 0.00 in meteobridge W/m2
02:38 52.9 °F 33.8 °F 30.11 in Calm     48% 0.00 in meteobridge W/m2
02:44 52.7 °F 33.1 °F 30.11 in Calm     47% 0.00 in meteobridge W/m2
02:49 52.7 °F 33.1 °F 30.12 in Calm     47% 0.00 in meteobridge W/m2
02:54 52.5 °F 32.9 °F 30.12 in Calm     47% 0.00 in meteobridge W/m2
02:59 52.5 °F 32.9 °F 30.12 in Calm     47% 0.00 in meteobridge W/m2
03:04 52.5 °F 32.9 °F 30.11 in Calm     47% 0.00 in meteobridge W/m2
03:07 52.5 °F 32.9 °F 30.11 in Calm     47% 0.00 in meteobridge W/m2
03:14 52.7 °F 33.1 °F 30.11 in Calm     47% 0.00 in meteobridge W/m2
03:19 52.7 °F 33.1 °F 30.11 in Calm     47% 0.00 in meteobridge W/m2
03:23 52.9 °F 33.3 °F 30.11 in Calm     47% 0.00 in meteobridge W/m2
03:26 52.9 °F 33.3 °F 30.12 in Calm     47% 0.00 in meteobridge W/m2
03:34 52.9 °F 33.3 °F 30.12 in Calm     47% 0.00 in meteobridge W/m2
03:37 52.9 °F 33.3 °F 30.12 in Calm     47% 0.00 in meteobridge W/m2
03:44 52.9 °F 33.3 °F 30.12 in Calm     47% 0.00 in meteobridge W/m2
03:49 52.9 °F 33.3 °F 30.11 in Calm     47% 0.00 in meteobridge W/m2
03:54 52.9 °F 33.3 °F 30.12 in Calm     47% 0.00 in meteobridge W/m2
03:59 52.9 °F 33.3 °F 30.11 in Calm     47% 0.00 in meteobridge W/m2
04:02 52.9 °F 33.3 °F 30.11 in Calm     47% 0.00 in meteobridge W/m2
04:09 52.9 °F 33.3 °F 30.11 in Calm     47% 0.00 in meteobridge W/m2
04:14 52.9 °F 33.3 °F 30.11 in Calm     47% 0.00 in meteobridge W/m2
04:19 52.9 °F 33.3 °F 30.11 in Calm     47% 0.00 in meteobridge W/m2
04:24 52.9 °F 33.3 °F 30.11 in Calm     47% 0.00 in meteobridge W/m2
04:29 53.1 °F 33.4 °F 30.11 in Calm     47% 0.00 in meteobridge W/m2
04:34 53.1 °F 33.4 °F 30.11 in Calm     47% 0.00 in meteobridge W/m2
04:38 53.2 °F 33.4 °F 30.11 in Calm     47% 0.00 in meteobridge W/m2
04:42 53.2 °F 33.4 °F 30.11 in Calm     47% 0.00 in meteobridge W/m2
04:47 53.2 °F 33.4 °F 30.11 in Calm     47% 0.00 in meteobridge W/m2
04:53 53.2 °F 33.4 °F 30.11 in Calm     47% 0.00 in meteobridge W/m2
04:59 53.1 °F 33.4 °F 30.11 in Calm     47% 0.00 in meteobridge W/m2
05:04 53.1 °F 33.4 °F 30.11 in Calm     47% 0.00 in meteobridge W/m2
05:09 53.1 °F 33.4 °F 30.11 in Calm     47% 0.00 in meteobridge W/m2
05:12 52.9 °F 33.3 °F 30.11 in Calm     47% 0.00 in meteobridge W/m2
05:18 52.9 °F 33.3 °F 30.11 in Calm     47% 0.00 in meteobridge W/m2
05:24 52.9 °F 33.3 °F 30.11 in Calm     47% 0.00 in meteobridge W/m2
05:28 52.9 °F 33.3 °F 30.11 in Calm     47% 0.00 in meteobridge W/m2
05:34 52.9 °F 33.3 °F 30.11 in Calm     47% 0.00 in meteobridge W/m2
05:39 52.9 °F 33.3 °F 30.11 in Calm     47% 0.00 in meteobridge W/m2
05:44 52.7 °F 33.1 °F 30.12 in Calm     47% 0.00 in meteobridge W/m2
05:48 52.5 °F 32.9 °F 30.11 in Calm     47% 0.00 in meteobridge W/m2
05:54 52.5 °F 32.9 °F 30.11 in Calm     47% 0.00 in meteobridge W/m2
05:58 52.5 °F 32.9 °F 30.11 in Calm     47% 0.00 in meteobridge W/m2
06:03 52.5 °F 32.9 °F 30.12 in Calm     47% 0.00 in meteobridge W/m2
06:09 52.7 °F 33.1 °F 30.12 in Calm     47% 0.00 in meteobridge W/m2
06:14 52.9 °F 33.3 °F 30.12 in Calm     47% 0.00 in meteobridge W/m2
06:19 52.9 °F 33.3 °F 30.12 in Calm     47% 0.00 in meteobridge W/m2
06:24 52.9 °F 33.3 °F 30.12 in Calm     47% 0.00 in meteobridge W/m2
06:29 52.9 °F 33.3 °F 30.13 in Calm     47% 0.00 in meteobridge W/m2
06:33 52.9 °F 33.3 °F 30.13 in Calm     47% 0.00 in meteobridge W/m2
06:39 52.9 °F 33.3 °F 30.12 in Calm     47% 0.00 in meteobridge W/m2
06:44 52.9 °F 33.3 °F 30.12 in Calm     47% 0.00 in meteobridge W/m2
06:49 52.9 °F 33.3 °F 30.12 in Calm     47% 0.00 in meteobridge W/m2
06:54 52.9 °F 33.3 °F 30.12 in Calm     47% 0.00 in meteobridge W/m2
06:59 52.7 °F 33.1 °F 30.12 in Calm     47% 0.00 in meteobridge W/m2
07:04 52.5 °F 32.9 °F 30.13 in Calm     47% 0.00 in meteobridge W/m2
07:07 52.5 °F 32.9 °F 30.13 in Calm     47% 0.00 in meteobridge W/m2
07:14 52.5 °F 32.9 °F 30.13 in Calm     47% 0.00 in meteobridge W/m2
07:18 52.5 °F 32.9 °F 30.13 in Calm     47% 0.00 in meteobridge W/m2
07:22 52.5 °F 32.9 °F 30.13 in Calm     47% 0.00 in meteobridge W/m2
07:26 52.5 °F 32.9 °F 30.13 in Calm     47% 0.00 in meteobridge W/m2
07:34 52.5 °F 32.9 °F 30.13 in Calm     47% 0.00 in meteobridge W/m2
07:38 52.5 °F 32.9 °F 30.13 in Calm     47% 0.00 in meteobridge W/m2
07:42 52.5 °F 32.9 °F 30.13 in Calm     47% 0.00 in meteobridge W/m2
07:49 52.9 °F 33.3 °F 30.13 in Calm     47% 0.00 in meteobridge W/m2
07:54 53.1 °F 33.4 °F 30.14 in Calm     47% 0.00 in meteobridge W/m2
07:57 53.1 °F 33.4 °F 30.14 in Calm     47% 0.00 in meteobridge W/m2
08:04 53.1 °F 33.4 °F 30.14 in Calm     47% 0.00 in meteobridge W/m2
08:09 53.2 °F 33.4 °F 30.14 in Calm     47% 0.00 in meteobridge W/m2
08:13 53.2 °F 33.4 °F 30.15 in Calm     47% 0.00 in meteobridge W/m2
08:18 53.4 °F 33.1 °F 30.15 in Calm     46% 0.00 in meteobridge W/m2
08:23 53.4 °F 33.1 °F 30.15 in Calm     46% 0.00 in meteobridge W/m2
08:29 53.6 °F 33.3 °F 30.15 in Calm     46% 0.00 in meteobridge W/m2
08:34 53.8 °F 33.4 °F 30.15 in Calm     46% 0.00 in meteobridge W/m2
08:37 53.8 °F 33.4 °F 30.15 in Calm     46% 0.00 in meteobridge W/m2
08:44 54.0 °F 33.6 °F 30.16 in Calm     46% 0.00 in meteobridge W/m2
08:49 54.0 °F 33.6 °F 30.16 in Calm     46% 0.00 in meteobridge W/m2
08:54 54.0 °F 33.6 °F 30.16 in Calm     46% 0.00 in meteobridge W/m2
08:58 54.1 °F 33.8 °F 30.16 in Calm     46% 0.00 in meteobridge W/m2
09:03 54.1 °F 33.8 °F 30.16 in Calm     46% 0.00 in meteobridge W/m2
09:09 54.3 °F 34.0 °F 30.16 in Calm     46% 0.00 in meteobridge W/m2
09:14 54.7 °F 34.3 °F 30.16 in Calm     46% 0.00 in meteobridge W/m2
09:19 54.9 °F 34.5 °F 30.16 in Calm     46% 0.00 in meteobridge W/m2
09:24 55.0 °F 34.7 °F 30.15 in Calm     46% 0.00 in meteobridge W/m2
09:29 55.0 °F 34.7 °F 30.15 in Calm     46% 0.00 in meteobridge W/m2
09:33 55.0 °F 34.7 °F 30.16 in Calm     46% 0.00 in meteobridge W/m2
09:39 55.2 °F 34.9 °F 30.16 in Calm     46% 0.00 in meteobridge W/m2
09:43 55.2 °F 34.9 °F 30.16 in Calm     46% 0.00 in meteobridge W/m2
09:48 55.4 °F 34.3 °F 30.16 in Calm     45% 0.00 in meteobridge W/m2
09:54 55.8 °F 34.7 °F 30.16 in Calm     45% 0.00 in meteobridge W/m2
09:58 55.9 °F 34.9 °F 30.16 in Calm     45% 0.00 in meteobridge W/m2
10:03 56.1 °F 35.1 °F 30.16 in Calm     45% 0.00 in meteobridge W/m2
10:08 56.3 °F 35.2 °F 30.16 in Calm     45% 0.00 in meteobridge W/m2
10:14 56.7 °F 35.6 °F 30.15 in Calm     45% 0.00 in meteobridge W/m2
10:19 56.8 °F 35.8 °F 30.15 in Calm     45% 0.00 in meteobridge W/m2
10:24 56.8 °F 35.8 °F 30.14 in Calm     45% 0.00 in meteobridge W/m2
10:29 56.7 °F 35.6 °F 30.14 in Calm     45% 0.01 in meteobridge W/m2
10:31 56.5 °F 36.0 °F 30.14 in Calm     46% 0.01 in meteobridge W/m2
10:37 56.7 °F 36.1 °F 30.16 in Calm     46% 0.01 in meteobridge W/m2
10:44 56.7 °F 36.7 °F 30.16 in Calm     47% 0.01 in meteobridge W/m2
10:49 56.8 °F 36.3 °F 30.16 in Calm     46% 0.01 in meteobridge W/m2
10:53 57.0 °F 36.5 °F 30.16 in Calm     46% 0.01 in meteobridge W/m2
10:58 57.0 °F 36.5 °F 30.16 in Calm     46% 0.01 in meteobridge W/m2
11:04 57.2 °F 36.7 °F 30.16 in Calm     46% 0.01 in meteobridge W/m2
11:09 57.0 °F 37.0 °F 30.16 in Calm     47% 0.01 in meteobridge W/m2
11:14 57.0 °F 38.1 °F 30.16 in Calm     49% 0.01 in meteobridge W/m2
11:16 57.0 °F 38.1 °F 30.16 in Calm     49% 0.01 in meteobridge W/m2
11:24 56.8 °F 40.8 °F 30.16 in Calm     55% 0.01 in meteobridge W/m2
11:29 56.8 °F 42.6 °F 30.16 in Calm     59% 0.01 in meteobridge W/m2
11:33 57.0 °F 43.3 °F 30.16 in Calm     60% 0.00 in meteobridge W/m2
11:38 57.4 °F 41.9 °F 30.16 in Calm     56% 0.00 in meteobridge W/m2
11:44 57.4 °F 43.7 °F 30.16 in Calm     60% 0.01 in meteobridge W/m2
11:48 57.6 °F 43.3 °F 30.16 in Calm     59% 0.01 in meteobridge W/m2
11:54 57.4 °F 46.6 °F 30.16 in Calm     67% 0.01 in meteobridge W/m2
11:58 57.2 °F 46.8 °F 30.15 in Calm     68% 0.01 in meteobridge W/m2
12:03 57.4 °F 47.3 °F 30.15 in Calm     69% 0.01 in meteobridge W/m2
12:09 57.0 °F 47.7 °F 30.15 in Calm     71% 0.01 in meteobridge W/m2
12:13 57.0 °F 48.0 °F 30.15 in Calm     72% 0.01 in meteobridge W/m2
12:19 57.0 °F 48.0 °F 30.15 in Calm     72% 0.01 in meteobridge W/m2
12:24 56.8 °F 47.8 °F 30.15 in Calm     72% 0.01 in meteobridge W/m2
12:29 57.0 °F 48.4 °F 30.15 in Calm     73% 0.01 in meteobridge W/m2
12:31 57.0 °F 48.4 °F 30.15 in Calm     73% 0.01 in meteobridge W/m2
12:39 57.4 °F 49.1 °F 30.14 in Calm     74% 0.01 in meteobridge W/m2
12:43 57.6 °F 49.3 °F 30.14 in Calm     74% 0.00 in meteobridge W/m2
12:48 57.7 °F 49.8 °F 30.14 in Calm     75% 0.00 in meteobridge W/m2
12:54 57.9 °F 50.0 °F 30.13 in Calm     75% 0.00 in meteobridge W/m2
12:59 58.3 °F 50.4 °F 30.13 in Calm     75% 0.00 in meteobridge W/m2
13:04 58.5 °F 50.5 °F 30.13 in Calm     75% 0.00 in meteobridge W/m2
13:09 58.6 °F 50.7 °F 30.12 in Calm     75% 0.00 in meteobridge W/m2
13:14 58.8 °F 50.9 °F 30.12 in Calm     75% 0.00 in meteobridge W/m2
13:19 59.2 °F 51.3 °F 30.11 in Calm     75% 0.00 in meteobridge W/m2
13:24 59.4 °F 51.4 °F 30.11 in Calm     75% 0.00 in meteobridge W/m2
13:29 59.7 °F 51.4 °F 30.11 in Calm     74% 0.00 in meteobridge W/m2
13:34 59.9 °F 51.6 °F 30.11 in Calm     74% 0.00 in meteobridge W/m2
13:38 60.1 °F 51.4 °F 30.11 in Calm     73% 0.00 in meteobridge W/m2
13:44 60.3 °F 52.0 °F 30.11 in Calm     74% 0.00 in meteobridge W/m2
13:49 60.3 °F 52.0 °F 30.11 in Calm     74% 0.00 in meteobridge W/m2
13:54 60.3 °F 52.0 °F 30.11 in Calm     74% 0.00 in meteobridge W/m2
13:59 60.3 °F 51.6 °F 30.11 in Calm     73% 0.00 in meteobridge W/m2
14:03 60.3 °F 52.0 °F 30.11 in Calm     74% 0.00 in meteobridge W/m2
14:09 60.3 °F 51.6 °F 30.11 in Calm     73% 0.00 in meteobridge W/m2
14:14 60.3 °F 52.0 °F 30.11 in Calm     74% 0.00 in meteobridge W/m2
14:19 60.3 °F 52.0 °F 30.12 in Calm     74% 0.00 in meteobridge W/m2
14:24 60.1 °F 51.8 °F 30.12 in Calm     74% 0.00 in meteobridge W/m2
14:29 60.1 °F 51.8 °F 30.13 in Calm     74% 0.00 in meteobridge W/m2
14:34 60.1 °F 51.8 °F 30.12 in Calm     74% 0.00 in meteobridge W/m2
14:38 60.1 °F 51.8 °F 30.12 in Calm     74% 0.00 in meteobridge W/m2
14:44 60.3 °F 51.6 °F 30.12 in Calm     73% 0.00 in meteobridge W/m2
14:47 60.3 °F 51.6 °F 30.12 in Calm     73% 0.00 in meteobridge W/m2
14:53 60.1 °F 51.4 °F 30.12 in Calm     73% 0.00 in meteobridge W/m2
14:58 59.9 °F 51.3 °F 30.12 in Calm     73% 0.00 in meteobridge W/m2
15:03 59.7 °F 51.4 °F 30.11 in Calm     74% 0.00 in meteobridge W/m2
15:08 59.7 °F 51.4 °F 30.11 in Calm     74% 0.00 in meteobridge W/m2
15:14 59.5 °F 51.3 °F 30.11 in Calm     74% 0.00 in meteobridge W/m2
15:17 59.5 °F 51.3 °F 30.11 in Calm     74% 0.00 in meteobridge W/m2
15:24 59.2 °F 50.9 °F 30.11 in Calm     74% 0.00 in meteobridge W/m2
15:29 58.8 °F 50.9 °F 30.11 in Calm     75% 0.00 in meteobridge W/m2
15:34 58.6 °F 50.7 °F 30.12 in Calm     75% 0.00 in meteobridge W/m2
15:39 58.5 °F 50.5 °F 30.11 in Calm     75% 0.00 in meteobridge W/m2
15:43 58.5 °F 50.5 °F 30.11 in Calm     75% 0.00 in meteobridge W/m2
15:49 58.5 °F 50.5 °F 30.11 in Calm     75% 0.00 in meteobridge W/m2
15:54 58.5 °F 50.2 °F 30.11 in Calm     74% 0.00 in meteobridge W/m2
15:59 58.5 °F 50.2 °F 30.11 in Calm     74% 0.00 in meteobridge W/m2
16:04 58.5 °F 50.2 °F 30.11 in Calm     74% 0.00 in meteobridge W/m2
16:09 58.5 °F 50.2 °F 30.12 in Calm     74% 0.00 in meteobridge W/m2
16:14 58.3 °F 50.0 °F 30.12 in Calm     74% 0.00 in meteobridge W/m2
16:19 58.5 °F 50.2 °F 30.12 in Calm     74% 0.00 in meteobridge W/m2
16:24 58.5 °F 50.5 °F 30.12 in Calm     75% 0.00 in meteobridge W/m2
16:29 58.5 °F 50.2 °F 30.12 in Calm     74% 0.00 in meteobridge W/m2
16:34 58.5 °F 50.2 °F 30.12 in Calm     74% 0.00 in meteobridge W/m2
16:39 58.5 °F 50.5 °F 30.12 in Calm     75% 0.00 in meteobridge W/m2
16:44 58.5 °F 50.2 °F 30.12 in Calm     74% 0.00 in meteobridge W/m2
16:49 58.5 °F 50.2 °F 30.12 in Calm     74% 0.00 in meteobridge W/m2
16:54 58.5 °F 50.2 °F 30.12 in Calm     74% 0.00 in meteobridge W/m2
16:59 58.3 °F 50.4 °F 30.12 in Calm     75% 0.00 in meteobridge W/m2
17:03 58.3 °F 50.4 °F 30.11 in Calm     75% 0.00 in meteobridge W/m2
17:08 58.5 °F 50.5 °F 30.12 in Calm     75% 0.00 in meteobridge W/m2
17:12 58.5 °F 50.5 °F 30.11 in Calm     75% 0.00 in meteobridge W/m2
17:16 58.5 °F 50.5 °F 30.11 in Calm     75% 0.00 in meteobridge W/m2
17:24 58.6 °F 50.7 °F 30.11 in Calm     75% 0.00 in meteobridge W/m2
17:29 58.6 °F 50.4 °F 30.11 in Calm     74% 0.00 in meteobridge W/m2
17:31 58.6 °F 50.7 °F 30.11 in Calm     75% 0.00 in meteobridge W/m2
17:39 58.6 °F 50.7 °F 30.11 in Calm     75% 0.00 in meteobridge W/m2
17:43 58.6 °F 50.7 °F 30.11 in Calm     75% 0.00 in meteobridge W/m2
17:48 58.6 °F 50.7 °F 30.11 in Calm     75% 0.00 in meteobridge W/m2
17:54 58.6 °F 50.7 °F 30.11 in Calm     75% 0.00 in meteobridge W/m2
17:59 58.6 °F 50.4 °F 30.12 in Calm     74% 0.00 in meteobridge W/m2
18:04 58.5 °F 50.5 °F 30.12 in Calm     75% 0.00 in meteobridge W/m2
18:09 58.5 °F 50.5 °F 30.13 in Calm     75% 0.00 in meteobridge W/m2
18:14 58.3 °F 50.4 °F 30.13 in Calm     75% 0.00 in meteobridge W/m2
18:24 58.3 °F 50.4 °F 30.13 in Calm     75% 0.00 in meteobridge W/m2
18:29 58.3 °F 49.6 °F 30.13 in Calm     73% 0.00 in meteobridge W/m2
18:34 57.9 °F 49.6 °F 30.13 in Calm     74% 0.00 in meteobridge W/m2
18:38 57.9 °F 49.6 °F 30.13 in Calm     74% 0.00 in meteobridge W/m2
18:44 57.7 °F 49.5 °F 30.13 in Calm     74% 0.00 in meteobridge W/m2
18:48 57.9 °F 49.6 °F 30.13 in Calm     74% 0.00 in meteobridge W/m2
18:53 57.9 °F 50.0 °F 30.12 in Calm     75% 0.00 in meteobridge W/m2
18:58 57.9 °F 50.0 °F 30.13 in Calm     75% 0.00 in meteobridge W/m2
19:04 58.1 °F 50.2 °F 30.13 in Calm     75% 0.00 in meteobridge W/m2
19:09 58.1 °F 50.2 °F 30.13 in Calm     75% 0.00 in meteobridge W/m2
19:13 58.1 °F 50.2 °F 30.13 in Calm     75% 0.00 in meteobridge W/m2
19:19 58.3 °F 50.4 °F 30.13 in Calm     75% 0.00 in meteobridge W/m2
19:24 58.3 °F 50.4 °F 30.13 in Calm     75% 0.00 in meteobridge W/m2
19:29 58.3 °F 50.4 °F 30.12 in Calm     75% 0.00 in meteobridge W/m2
19:32 58.5 °F 50.5 °F 30.12 in Calm     75% 0.00 in meteobridge W/m2
19:39 58.3 °F 50.4 °F 30.12 in Calm     75% 0.00 in meteobridge W/m2
19:43 58.3 °F 50.4 °F 30.13 in Calm     75% 0.00 in meteobridge W/m2
19:49 58.3 °F 50.4 °F 30.13 in Calm     75% 0.00 in meteobridge W/m2
19:54 58.3 °F 50.4 °F 30.12 in Calm     75% 0.00 in meteobridge W/m2
19:58 58.3 °F 50.0 °F 30.12 in Calm     74% 0.00 in meteobridge W/m2
20:04 58.1 °F 49.8 °F 30.13 in Calm     74% 0.00 in meteobridge W/m2
20:09 57.9 °F 49.6 °F 30.12 in Calm     74% 0.00 in meteobridge W/m2
20:14 57.7 °F 49.5 °F 30.12 in Calm     74% 0.00 in meteobridge W/m2
20:19 57.7 °F 49.5 °F 30.12 in Calm     74% 0.00 in meteobridge W/m2
20:24 57.7 °F 49.5 °F 30.12 in Calm     74% 0.00 in meteobridge W/m2
20:29 57.6 °F 48.9 °F 30.13 in Calm     73% 0.00 in meteobridge W/m2
20:34 57.6 °F 48.9 °F 30.13 in Calm     73% 0.00 in meteobridge W/m2
20:39 57.6 °F 48.9 °F 30.13 in Calm     73% 0.00 in meteobridge W/m2
20:41 57.4 °F 48.7 °F 30.13 in Calm     73% 0.00 in meteobridge W/m2
20:47 57.2 °F 48.6 °F 30.13 in Calm     73% 0.00 in meteobridge W/m2
20:54 57.0 °F 48.4 °F 30.13 in Calm     73% 0.00 in meteobridge W/m2
20:59 56.8 °F 48.2 °F 30.14 in Calm     73% 0.00 in meteobridge W/m2
21:04 56.8 °F 48.2 °F 30.14 in Calm     73% 0.00 in meteobridge W/m2
21:09 56.7 °F 47.7 °F 30.14 in Calm     72% 0.00 in meteobridge W/m2
21:12 56.7 °F 47.7 °F 30.14 in Calm     72% 0.00 in meteobridge W/m2
21:18 56.7 °F 47.7 °F 30.14 in Calm     72% 0.00 in meteobridge W/m2
21:22 56.5 °F 47.5 °F 30.14 in Calm     72% 0.00 in meteobridge W/m2
21:29 56.3 °F 46.9 °F 30.14 in Calm     71% 0.00 in meteobridge W/m2
21:33 56.3 °F 46.9 °F 30.14 in Calm     71% 0.00 in meteobridge W/m2
21:37 56.1 °F 46.8 °F 30.14 in Calm     71% 0.00 in meteobridge W/m2
21:44 56.1 °F 46.4 °F 30.15 in Calm     70% 0.00 in meteobridge W/m2
21:48 55.9 °F 46.2 °F 30.15 in Calm     70% 0.00 in meteobridge W/m2
21:53 55.9 °F 45.9 °F 30.15 in Calm     69% 0.00 in meteobridge W/m2
21:59 55.8 °F 45.7 °F 30.15 in Calm     69% 0.00 in meteobridge W/m2
22:04 55.8 °F 45.7 °F 30.15 in Calm     69% 0.00 in meteobridge W/m2
22:08 55.8 °F 45.7 °F 30.15 in Calm     69% 0.00 in meteobridge W/m2
22:14 55.6 °F 45.5 °F 30.14 in Calm     69% 0.00 in meteobridge W/m2
22:18 55.4 °F 45.3 °F 30.14 in Calm     69% 0.00 in meteobridge W/m2
22:24 55.2 °F 45.1 °F 30.15 in Calm     69% 0.00 in meteobridge W/m2
22:29 55.2 °F 45.1 °F 30.14 in Calm     69% 0.00 in meteobridge W/m2
22:33 55.2 °F 45.1 °F 30.14 in Calm     69% 0.00 in meteobridge W/m2
22:39 55.2 °F 44.8 °F 30.15 in Calm     68% 0.00 in meteobridge W/m2
22:43 55.0 °F 45.1 °F 30.15 in Calm     69% 0.00 in meteobridge W/m2
22:47 55.0 °F 44.6 °F 30.15 in Calm     68% 0.00 in meteobridge W/m2
22:54 55.0 °F 44.6 °F 30.15 in Calm     68% 0.00 in meteobridge W/m2
22:59 55.0 °F 44.6 °F 30.14 in Calm     68% 0.00 in meteobridge W/m2
23:03 55.0 °F 44.6 °F 30.14 in Calm     68% 0.00 in meteobridge W/m2
23:09 55.0 °F 44.2 °F 30.14 in Calm     67% 0.00 in meteobridge W/m2
23:13 55.0 °F 44.2 °F 30.14 in Calm     67% 0.00 in meteobridge W/m2
23:19 55.0 °F 44.2 °F 30.14 in Calm     67% 0.00 in meteobridge W/m2
23:24 55.0 °F 44.2 °F 30.14 in Calm     67% 0.00 in meteobridge W/m2
23:29 55.0 °F 44.2 °F 30.14 in Calm     67% 0.00 in meteobridge W/m2
23:34 55.2 °F 44.4 °F 30.14 in Calm     67% 0.00 in meteobridge W/m2
23:38 55.2 °F 44.4 °F 30.14 in Calm     67% 0.00 in meteobridge W/m2
23:41 55.2 °F 44.4 °F 30.14 in Calm     67% 0.00 in meteobridge W/m2
23:47 55.2 °F 44.4 °F 30.13 in Calm     67% 0.00 in meteobridge W/m2
23:54 55.2 °F 44.1 °F 30.13 in Calm     66% 0.00 in meteobridge W/m2
23:59 55.2 °F 44.1 °F 30.13 in Calm     66% 0.00 in meteobridge W/m2
EllijayWeather
Compliments of Weather Underground - 2.5 mb